SL-16 DEB, 39303

Orbit data source: Space-Track

SL-16 DEB, 39303 is space debris in LEO originally from a launch on Fri, 25 Dec 1992 UTC launched from the Tyuratam Missile And Space Complex (TTMTR). Debris objects in space refer to the collection of defunct objects orbiting the Earth. Examples of debris include non-operational satellites, rocket bodies, and fragments generated from explosions, collisions, or faulty payload assembly.

Loading next visibility...
Identifier
39303, 1992-093JU
Orbit
LEO
Country
Flag of CISCIS
Related business
Manufacturer
Unknown
Mission
Spacecraft
Bus & Motor
Unknown
Mass
Unknown
Launch date (UTC)
1992-12-25 (33 years ago)
Launch vehicle
Unknown
Launch site
Tyuratam Missile And Space Complex (TTMTR)
Object type
Payload
Rocket body
Debris
Shape & HBR
Unknown shape, 0.1 m
Radar Cross Section
Small (<0.1 m²)

Expand to show TLE details & history
Last TLE update: 6 days ago

TLE from 6 days ago
0 SL-16 DEB
1 39303U 92093JU  26167.52772145  .00000748  00000-0  40336-3 0  9994
2 39303  70.9071 268.8766 0055892 152.3268 208.0849 14.15204224652248
Epoch: 2026-06-16T12:39Z
TLE epoch observation values (Epoch: 2026-06-16T12:39:55.133Z)
Latitude
0.00001°
Longitude
174.09841°
Altitude
879.668 km
Speed
7.394 km/s
True Right ascension
17h 55m 30s
True Declination
0° 00' 00"
Sunlit
Object was in full shadow at epoch
Visualization orbit readout
Latitude
Unknown
Longitude
Unknown
Altitude
Unknown
Speed
Unknown
Apparent Right ascension
Unknown
Apparent Declination
Unknown
Sunlit
N/A
Visualization observer readout
Local Sidereal Time
07:08:04
Azimuth
Unknown
Elevation
Unknown
Doppler factor
Unknown
Orbital elements
Apogee altitude
879.892 km
Perigee altitude
799.21 km
Semi-major axis
7,217.688 km
Eccentricity
0.00559
Inclination
70.9071°
RAAN
268.8766°
Arg. of periapsis
152.3268°
True anomaly
207.78523°
Mean anomaly
208.0849°
Eccentric anomaly
207.93488°
Mean motion
3.53953 °/min
Orbital period
101.71 mins
BSTAR
0.00040336
Loading maneuver chart data...
Computing Atmospheric mass density...
Loading historical data...
Loading historical data...
Loading historical data...
Loading historical data...
Loading historical data...
Loading historical data...
Loading historical data...

Documentation

Showing up to 5 results
|